Hourly Data Report for July 20, 2021

VINELAND STATION RCS
ONTARIO
Current Station Operator: ECCC - MSC

43°11'00.000" N
79°24'00.000" W
79.20 m
6139148
71171
XVN

Download Data

Hourly Data (July 2021)
Hourly Data Report for July 20, 2021
TIME
LST
Temp Definition
°C
Dew Point Definition
°C
Rel Hum Definition
%
Precip. Amount Definition
mm

Wind Dir Definition
10's deg

Wind Spd Definition
km/h
Visibility Definition
km
Stn Press Definition
kPa
Hmdx Definition


Wind Chill Definition


Weather Definition


00:00 21.8 19.8 88 LegendMM 23 7   100.56 29   LegendNANA
01:00 21.6 19.2 86 LegendMM 24 8   100.53 29   LegendNANA
02:00 20.8 18.8 88 LegendMM 25 6   100.48 27   LegendNANA
03:00 20.4 18.6 89 LegendMM 26 3   100.45 27   LegendNANA
04:00 19.6 18.2 92 LegendMM 24 7   100.44     LegendNANA
05:00 19.8 17.7 88 LegendMM 24 8   100.47     LegendNANA
06:00 20.2 17.8 86 LegendMM 23 7   100.48 26   LegendNANA
07:00 22.4 18.2 77 LegendMM 22 6   100.49 29   LegendNANA
08:00 24.5 18.5 69 LegendMM 22 7   100.46 31   LegendNANA
09:00 26.6 18.2 60 LegendMM 24 11   100.43 33   LegendNANA
10:00 27.6 19.8 63 LegendMM 23 12   100.38 35   LegendNANA
11:00 28.3 19.1 58 LegendMM 23 15   100.38 35   LegendNANA
12:00 28.6 19.4 57 LegendMM 21 19   100.31 36   LegendNANA
13:00 28.8 20.8 62 LegendMM 21 21   100.22 37   LegendNANA
14:00 28.9 21.5 65 LegendMM 21 20   100.12 38   LegendNANA
15:00 28.9 21.9 66 LegendMM 22 20   100.10 38   LegendNANA
16:00 27.7 19.3 60 LegendMM 29 17   100.04 35   LegendNANA
17:00 24.5 17.9 67 LegendMM 36 14   100.15 30   LegendNANA
18:00 22.9 17.7 73 LegendMM 3 7   100.27 29   LegendNANA
19:00 20.0 18.3 90 LegendMM 8 8   100.28 26   LegendNANA
20:00 20.1 18.1 88 LegendMM 1 8   100.28 26   LegendNANA
21:00 19.6 17.9 90 LegendMM 28 4   100.34     LegendNANA
22:00 20.5 18.0 86 LegendMM 34 12   100.37 27   LegendNANA
23:00 20.2 17.8 86 LegendMM 34 15   100.38 26   LegendNANA

Notes on Data Quality.

Legend

  • E = Estimated
  • M = Missing
  • NA = Not Available*
  • [empty] = Indicates an unobserved value
Date modified: